International Skating Union - Official Site

ISU World Cup Speed Skating Finals 2017-2018
March 17-18, 2018

Draw | Lap Times | Index | World Cup

Referee: Hubert  KAMML  (GER)
Starter: Jouko  VESTERLUND  (FIN)
StartTime: EndTime: Air Temp: Ice Temp: Humidity:
16:08 16:19 13.5 ℃ -6 ℃ 29%
Result Team Pursuit Men
Rankings as of Mar 18 2018 7:06PM
Rank: No.: Team: Nation: Time: Behind: Points:
Total 3
1 17 Norway (32) Håvard Bøkko (37) Simen Spieler Nilsen (38) Sverre Lunde Pedersen (33) Sindre Henriksen NOR NOR 3:43.880.5 - 17.65 - (17.6)
1.0 - 31.02 - (13.3)
1.5 - 44.42 - (13.4)
2.0 - 58.04 - (13.6)
2.5 - 1:11.64 - (13.6)
3.0 - 1:25.42 - (13.7)
3.5 - 1:39.34 - (13.9)
4.0 - 1:53.03 - (13.6)
4.5 - 2:06.85 - (13.8)
5.0 - 2:20.76 - (13.9)
5.5 - 2:34.49 - (13.7)
6.0 - 2:48.21 - (13.7)
6.5 - 3:01.94 - (13.7)
7.0 - 3:15.74 - (13.8)
7.5 - 3:29.58 - (13.8)
8.0 - 3:43.88 - (14.2)
150
2 11 Italy (10) Riccardo Bugari (12) Andrea Giovannini (14) Alessio Trentini (13) Michele Malfatti ITA ITA 3:49.150.5 - 17.98 - (17.9)
1.0 - 31.38 - (13.3)
1.5 - 45.00 - (13.6)
2.0 - 58.79 - (13.7)
2.5 - 1:12.83 - (14.0)
3.0 - 1:27.23 - (14.4)
3.5 - 1:41.47 - (14.2)
4.0 - 1:55.69 - (14.2)
4.5 - 2:09.55 - (13.8)
5.0 - 2:23.48 - (13.9)
5.5 - 2:37.49 - (14.0)
6.0 - 2:51.61 - (14.1)
6.5 - 3:05.82 - (14.2)
7.0 - 3:20.18 - (14.3)
7.5 - 3:34.66 - (14.4)
8.0 - 3:49.15 - (14.4)
5.27 120
3 12 Japan (15) Shota Nakamura (17) Ryosuke Tsuchiya (18) Shane Williamson JPN JPN 3:51.840.5 - 18.50 - (18.5)
1.0 - 32.53 - (14.0)
1.5 - 46.32 - (13.7)
2.0 - 1:00.22 - (13.8)
2.5 - 1:14.23 - (14.0)
3.0 - 1:28.32 - (14.0)
3.5 - 1:42.63 - (14.3)
4.0 - 1:56.89 - (14.2)
4.5 - 2:10.87 - (13.9)
5.0 - 2:24.93 - (14.0)
5.5 - 2:39.60 - (14.6)
6.0 - 2:53.92 - (14.3)
6.5 - 3:08.27 - (14.3)
7.0 - 3:22.80 - (14.5)
7.5 - 3:37.30 - (14.5)
8.0 - 3:51.84 - (14.5)
7.96 104